Weather Roundup
Issued by NWS Springfield, MO

Home | Current Version | Previous Version | Text Only | Print | Product List | Glossary On
Versions: 1 2 3 4 5 6 7 8 9 10 11 12 13 14 15 16 17 18 19 20 21 22 23 24 25 26 27 28 29 30 31 32 33 34 35 36 37 38 39 40 41 42 43 44 45 46 47 48 49 50
000
NZUS99 KSGF 261657
HRRSGF

HOURLY WEATHER
NATIONAL WEATHER SERVICE SPRINGFIELD MO
1200 PM CDT WED JUL 26 2017

......SGF CWA......

CITY           SKY/WX    TMP DP  RH WIND       PRES   REMARKS
SPRINGFIELD    CLOUDY    90  73  57 S10       30.09F HX  98
JOPLIN         PTSUNNY   94  73  50 SW14G22   30.06F HX 103
WEST PLAINS    CLOUDY    90  71  53 W6        30.12F HX  96
ROLLA          CLOUDY    88  74  63 SW8       30.10S HX  96
BRANSON        CLOUDY    90  72  55 SW7       30.12F HX  96

......SURROUNDING SGF CWA......

CITY           SKY/WX    TMP DP  RH WIND       PRES   REMARKS
CHANUTE        CLOUDY    87  73  62 S9        30.03S HX  94
PARSONS        MOSUNNY   87  73  62 S7        30.04S HX  94
COFFEYVILLE    PTSUNNY   90  74  59 S13       30.02F HX  99
EMPORIA        CLOUDY    76  74  93 E8        30.02F
HARRISON AR    MOSUNNY   89  71  55 VRB7      30.12F HX  95

......KANSAS AND MISSOURI......

CITY           SKY/WX    TMP DP  RH WIND       PRES   REMARKS
KANSAS CTY INT LGT RAIN  78  76  93 S8        30.03F
SEDALIA        CLOUDY    87  78  74 SW9       30.07S HX 100
ST JOSEPH      CLOUDY    79  77  94 S9        29.98F
ST LOUIS       CLOUDY    96  74  48 W10       30.05S HX 107
WICHITA        CLOUDY    93  69  45 S13       29.96F HX  98
TOPEKA         LGT RAIN  76  75  97 SE13      29.99F
OLATHE         CLOUDY    79  75  87 SW3       30.06F

......TENNESSEE......

CITY           SKY/WX    TMP DP  RH WIND       PRES   REMARKS
MEMPHIS        NOT AVBL
NASHVILLE      PTSUNNY   91  71  51 SW6       30.11F HX  97

......ARKANSAS.......

CITY           SKY/WX    TMP DP  RH WIND       PRES   REMARKS
FAYETTEVILLE   PTSUNNY   86  74  67 SW8       30.11F HX  94
FT SMITH       SUNNY     92  74  55 S7        30.07F HX 101
LITTLE ROCK    MOSUNNY   91  75  59 S9        30.09F HX 101

......OKLAHOMA.......

CITY           SKY/WX    TMP DP  RH WIND       PRES   REMARKS
TULSA          CLOUDY    92  73  53 S12       30.02S HX 100
PONCA CITY     CLOUDY    93  70  46 S14       29.99F HX  99
MCALESTER      SUNNY     91  75  59 SW12      30.08S HX 101
OKLAHOMA CITY  CLOUDY    94  69  44 S14G23    30.03F HX  99

......IOWA............

CITY           SKY/WX    TMP DP  RH WIND       PRES   REMARKS
DES MOINES     NOT AVBL
QUAD CITIES    CLOUDY    82  74  76 S5        30.02F

......ILLINOIS........

CITY           SKY/WX    TMP DP  RH WIND       PRES   REMARKS
QUINCY         NOT AVBL
CHICAGO        PTSUNNY   82  68  62 S9        30.05F



USA.gov is the U.S. government's official web portal to all federal, state and local government web resources and services.